Voltar ao catálogo

SENTINEL 2A

AtivoCiênciaSSO
NORAD 40697·PAYLOAD·🇪🇺 EU

Lançado Jun 23, 2015 de Guiana Space Centre

Loading…

Próximas Passagens (próximas 24 horas)

TLE

AtualizadoSource: Space-Track

Época: Sep 14, 2026, 15:43 UTC

1 40697U 15028A   26257.65522179  .00000132  00000-0  66914-4 0  9997
2 40697  98.5622 331.2059 0001175  83.5171 276.6146 14.30821374586523

Acompanhe SENTINEL 2A em tempo real com AllMySat

Download on the App Store